Location: ????????
(55.0808°N, 38.5463°E)
Time: 03:24:46
(UTC+00:00)

Nimbus 3 Rocket - Pass Details

Date: 23 September 2024
Orbit: 1072 x 1131 km, 99.9° (Epoch: 03 October)

Event Time Altitude Azimuth Distance (km) Brightness Sun altitude
Rises 23:24:21 0° 17° (NNE) 3,916 9.2 -29.7°
Reaches altitude 10° 23:27:10 10° 8° (N) 2,948 8.2 -29.5°
Maximum altitude 23:32:52 32° 309° (NW) 1,780 6.3 -29.0°
Enters shadow 23:33:40 31° 296° (WNW) 1,808 6.2 -28.9°
